Location: Ch�tillon
(48.8024°N, 2.2935°E)
Time: 07:56:59
(UTC+00:00)

LO-87 - Pass Details

Date: 29 June 2022
Orbit: 450 x 466 km, 97.4° (Epoch: 17 August)

Event Time Altitude Azimuth Distance (km) Brightness Sun altitude
Exits shadow 22:54:16 32° 120° (ESE) 823 ? -16.8°
Maximum altitude 22:55:24 44° 72° (ENE) 648 ? -16.8°
Drops below altitude 10° 22:58:45 10° 359° (N) 1,625 ? -16.9°
Sets 23:00:51 0° 353° (N) 2,510 ? -17.0°
